Presure
182 186 117 170 168 172 128 130 128 95 105 99 98 100 97 97 143 103 117 105 114 105 116 145 125 186 158 174 173 161 142 90 169 128 173 148 141 112 134 127 137 136 141
191 173 184 172 180 110 184 181 121 93 98 130 135 113 102 94 99 99 122 103 125 118 126 120 97 120 183 115 173 171 95 170 96 180 176 135 170 102 156 102 164 119 138
124 159 175 164 173 93 168 159 145 112 103 113 98 166 102 94 95 150 97 103 104 158 120 150 106 117 143 96 93 101 136 163 89 148 166 104 134 176 152 114 139 158 104
160 130 122 174 170 164 177 104 137 181 180 116 98 107 96 100 105 96 98 128 125 125 96 112 119 87 115 158 179 134 171 101 89 173 168 168 89 117 143 164 127 108 95
183 169 143 154 140 174 170 169 177 162 166 113 176 100 112 170 172 105 94 106 181 119 131 92 158 110 108 106 173 104 100 173 81 128 109 176 157 146 119 105 102 101 157
166 179 163 172 170 159 173 170 171 168 168 167 112 172 122 108 98 84 95 87 180 93 108 105 94 144 109 110 88 88 99 91 166 94 162 93 172 118 146 106 99 126 158
179 183 172 168 174 169 157 165 172 171 163 174 165 110 86 103 190 95 175 119 174 99 115 159 104 198 97 134 109 98 84 91 147 145 126 93 98 93 88 93 121 143 100
177 175 174 176 185 181 172 165 162 170 171 180 173 158 161 120 162 104 98 184 174 89 102 181 143 139 102 103 96 78 139 165 92 90 161 96 131 102 117 105 131 95 120
169 169 178 166 168 170 182 174 170 162 165 151 172 164 111 159 101 179 171 178 85 181 93 95 155 98 102 124 103 154 102 89 168 107 147 148 143 161 144 85 92 151 99
159 170 174 164 164 172 175 181 172 174 167 162 170 177 169 173 179 178 166 79 173 165 156 135 102 156 180 188 180 171 177 101 167 100 92 108 163 141 129 159 161 102 91
173 175 174 177 176 174 152 174 179 184 177 173 172 177 170 166 151 163 169 176 178 138 180 182 177 93 110 163 155 99 101 95 86 89 108 99 99 99 103 108 115 85 160
160 162 162 180 193 185 179 171 172 173 184 194 184 176 177 175 173 173 172 159 173 131 174 155 126 174 132 180 99 104 100 96 93 124 139 103 95 120 97 96 93 105 156
161 163 162 168 170 174 174 179 177 168 163 167 177 183 167 174 184 183 181 188 178 175 175 172 159 87 85 86 107 176 163 99 99 98 86 83 91 91 89 90 155 98 86
172 172 170 170 161 163 164 164 168 171 174 177 179 178 164 162 164 171 167 184 187 192 182 181 92 87 162 166 98 152 87 93 76 99 85 179 105 93 93 96 96 92 93
197 197 184 185 180 180 178 148 132 157 174 178 177 181 182 181 177 174 173 171 170 175 180 191 198 182 175 179 176 169 109 93 96 151 130 132 186 181 157 127 129 91 87
240 228 254 243 222 202 195 213 201 195 195 182 168 140 142 173 187 180 176 182 186 181 175 175 187 161 155 182 180 82 120 130 86 93 94 165 170 173 188 181 92 123 83
214 214 215 223 224 255 231 225 221 207 208 210 205 221 217 200 197 188 152 198 186 188 180 184 186 170 174 178 183 189 183 176 178 179 83 156 93 90 176 86 94 184 172
182 199 209 219 217 216 225 235 211 222 236 224 215 215 220 204 213 214 220 221 221 184 197 203 197 187 187 172 177 174 161 179 185 187 187 195 106 160 172 173 174 175 190
182 184 168 170 184 218 199 214 220 242 243 237 212 223 237 238 227 211 210 206 213 214 208 219 207 208 196 202 193 185 182 172 167 97 147 185 191 179 172 172 173 173 175
196 196 205 183 177 183 183 201 192 210 204 195 239 231 224 221 227 212 223 241 242 239 208 217 234 224 221 211 204 200 207 197 182 177 171 152 94 118 188 127 177 105 168
198 197 199 205 201 152 200 187 173 183 194 228 227 229 240 236 226 218 217 217 232 198 235 231 250 218 207 220 215 214 218 195 210 198 203 187 175 176 175 186 169 95 95
197 194 196 196 193 194 145 193 152 210 210 186 203 225 201 213 232 237 231 226 233 210 228 234 242 210 252 229 215 231 194 189 230 199 203 201 198 202 205 175 201 178 178
184 191 174 176 185 197 195 196 202 195 171 170 223 188 211 216 224 224 225 221 228 227 224 222 219 229 239 225 250 229 227 219 203 165 182 192 198 201 199 214 212 196 173
178 160 189 181 185 195 196 199 189 205 186 232 183 244 230 234 230 221 201 215 224 231 219 231 223 217 224 221 228 246 245 215 226 217 205 164 191 214 194 195 191 212 205
194 183 183 191 192 190 189 190 188 183 216 243 199 218 233 236 206 236 234 226 226 236 223 237 217 216 216 220 223 242 234 216 216 224 218 207 210 210 230 182 191 195 191
191 197 186 187 195 209 194 192 196 197 186 173 258 181 210 226 242 194 233 222 222 230 216 229 243 227 225 226 221 218 232 232 244 227 213 212 222 203 216 230 169 201 190
Wind_Speed
26 31 32 34 34 30 33 48 48 30 37 33 35 35 33 31 34 27 32 23 25 25 25 31 28 37 31 36 37 36 29 15 33 22 42 34 29 20 36 28 32 26 35
23 35 32 35 28 39 30 34 51 29 34 50 48 40 37 27 32 29 39 25 40 30 32 29 23 30 36 24 38 39 17 34 18 37 41 35 41 15 37 13 38 23 35
34 32 36 39 33 38 38 38 44 37 39 42 34 41 37 32 31 45 28 30 29 45 30 42 28 30 34 24 23 23 31 37 18 32 39 19 38 44 39 20 39 40 14
40 44 36 40 41 45 38 32 41 39 42 35 35 37 35 38 39 33 33 38 41 38 29 30 36 24 32 41 41 33 41 26 21 40 42 42 14 29 35 44 29 19 13
42 45 46 43 42 46 47 47 46 52 48 35 49 37 46 53 51 42 34 39 49 40 41 29 49 35 35 33 44 28 27 44 18 31 25 45 45 39 32 23 20 19 46
46 45 45 45 46 47 48 49 49 52 52 54 43 49 55 46 42 34 42 32 49 34 37 37 32 51 37 36 28 27 29 24 47 22 44 23 47 31 46 24 20 34 48
47 46 47 47 48 49 50 48 51 51 53 56 55 42 39 47 50 47 54 52 53 41 45 44 39 45 37 46 38 33 27 27 45 45 38 23 26 23 18 19 35 43 20
48 49 49 48 50 52 53 53 52 54 55 57 60 57 56 46 55 52 50 55 58 39 46 53 50 45 42 41 35 24 47 53 30 27 54 27 39 29 35 33 39 21 32
50 51 53 50 52 53 57 58 58 56 57 58 62 60 51 58 44 60 59 59 39 59 44 45 53 44 46 52 45 56 40 32 56 39 51 51 50 55 47 22 24 51 26
51 53 55 53 54 56 57 60 61 63 63 61 63 65 63 63 64 65 62 42 61 57 58 50 51 54 58 56 59 54 63 42 61 37 33 41 60 51 44 56 57 33 24
55 57 58 60 59 61 58 63 65 69 69 68 67 68 66 65 63 64 66 68 69 58 64 64 65 46 49 56 54 48 48 43 38 35 42 40 38 37 39 42 39 24 57
55 57 58 62 64 65 66 64 65 65 70 74 74 70 72 72 73 71 71 67 69 63 69 62 55 64 58 63 53 52 52 48 43 52 57 43 40 48 39 39 33 38 60
59 60 61 63 65 66 68 68 70 70 68 70 72 74 70 72 77 77 76 77 74 74 74 72 67 51 48 44 60 66 64 54 52 50 40 38 40 40 37 38 62 38 29
64 65 66 68 68 69 69 70 72 74 76 77 78 79 74 72 73 75 73 78 79 83 78 79 54 55 72 71 54 67 50 54 40 56 44 71 50 45 45 45 44 37 38
60 64 68 71 73 75 76 72 68 75 80 80 82 83 83 84 82 81 79 78 78 79 81 82 83 83 78 80 77 77 65 57 58 68 65 61 74 74 69 59 61 42 37
38 43 54 60 66 73 76 79 83 86 87 85 81 75 72 83 89 88 84 85 86 87 84 82 84 79 79 85 83 54 68 69 55 58 57 73 76 76 78 78 48 54 37
37 39 43 44 53 50 67 75 79 81 85 88 89 90 92 93 93 91 79 93 91 92 88 89 88 84 84 86 86 87 86 86 86 85 54 75 58 53 79 48 53 79 75
54 53 50 48 54 57 54 57 70 75 77 86 89 90 91 93 94 94 92 93 94 91 94 96 94 93 92 88 89 87 83 88 92 91 89 88 66 79 82 82 80 78 81
58 60 64 59 63 58 65 66 66 66 70 78 80 84 85 89 92 96 96 96 96 96 95 93 93 95 95 94 93 92 93 91 88 69 83 90 89 86 85 84 81 80 81
58 60 62 68 66 70 67 69 69 74 69 72 78 83 85 91 91 91 90 84 84 84 98 95 92 94 93 95 95 93 92 95 96 96 93 86 69 73 91 75 88 67 81
63 64 66 65 70 78 72 74 75 73 77 80 78 86 81 87 91 94 92 93 88 89 88 93 82 98 97 93 94 95 93 94 94 97 96 97 95 93 90 93 87 67 65
68 71 71 74 76 79 81 80 82 80 82 79 84 88 80 89 88 88 94 96 91 97 89 89 87 98 80 97 95 92 94 94 92 98 97 98 99 98 100 91 93 92 91
81 75 69 73 75 81 86 88 86 83 85 83 87 89 84 91 89 95 93 88 93 96 99 98 99 93 87 93 88 96 94 96 100 96 100 100 100 98 98 97 97 99 92
83 70 86 87 88 88 88 91 83 95 85 91 82 88 90 95 96 97 91 101 99 95 101 99 102 100 97 96 96 88 93 98 96 100 102 98 102 100 102 101 99 98 99
88 92 94 96 98 97 94 89 94 90 94 93 99 99 94 97 94 101 101 107 106 100 107 100 108 107 106 100 98 93 98 101 101 99 101 104 103 103 99 102 102 101 100
94 94 100 100 105 103 102 102 103 104 95 86 95 84 104 102 102 95 108 112 110 110 109 107 102 107 108 107 104 103 98 99 94 104 104 106 102 107 103 98 99 105 103
Wind_Direction
230 232 242 234 235 233 241 233 234 235 232 229 229 232 239 243 239 245 250 235 241 237 247 245 253 234 243 228 229 237 239 230 231 225 223 233 228 250 247 255 248 231 241
230 229 229 231 223 244 231 230 236 247 238 241 242 235 232 246 245 246 251 239 252 246 252 247 233 252 237 225 227 230 232 228 237 225 223 242 229 244 234 248 238 246 246
246 238 230 233 226 248 229 233 237 242 244 244 235 238 237 247 246 244 242 244 239 248 246 253 238 248 250 224 230 219 230 234 236 227 223 245 243 230 234 236 247 239 238
236 245 246 227 228 232 220 251 239 231 234 244 243 237 240 242 247 247 245 248 255 252 235 240 248 235 247 240 235 235 232 245 220 230 228 228 233 248 234 235 241 252 243
230 234 244 238 238 229 232 230 225 239 238 246 238 244 252 240 241 249 250 249 236 251 243 235 248 242 242 244 239 231 233 231 239 230 253 234 233 234 249 241 256 257 241
242 235 244 239 241 248 238 240 236 239 241 244 244 242 253 245 237 239 246 241 236 241 247 241 237 255 242 243 235 238 238 238 236 236 232 247 234 248 237 253 256 251 242
241 238 243 245 241 244 251 248 246 247 249 243 250 244 242 240 243 234 247 246 241 241 245 241 242 234 241 241 244 239 246 242 238 238 238 235 249 253 238 255 250 243 254
243 245 247 244 241 242 245 248 249 246 247 245 247 255 255 251 254 244 240 246 247 233 240 237 237 239 243 244 248 258 241 235 244 245 237 248 239 252 250 260 248 263 252
249 251 245 249 248 247 242 245 248 249 249 246 247 252 251 255 247 245 248 244 248 246 238 241 240 236 239 251 243 242 244 243 237 249 239 239 244 239 238 251 252 243 253
253 250 250 254 254 252 250 245 249 248 251 251 251 249 252 253 251 251 257 246 249 250 245 247 243 249 244 242 240 238 242 243 241 245 244 251 241 245 241 240 242 251 258
251 252 253 251 251 249 254 250 249 248 251 252 253 251 254 254 252 255 254 253 248 252 246 243 244 244 247 247 246 244 243 242 244 249 245 248 251 252 255 253 247 256 247
262 262 262 260 251 252 254 256 256 255 251 249 251 254 252 251 252 252 253 250 252 248 251 248 246 244 243 248 247 249 248 246 243 243 243 244 247 246 252 256 254 254 248
262 263 264 263 261 261 263 262 262 262 259 258 257 254 258 258 253 252 253 249 252 253 254 254 252 246 246 243 243 246 246 249 251 250 242 246 247 251 249 251 246 252 254
263 263 263 263 264 266 266 267 264 262 261 261 261 260 258 258 257 257 256 256 254 251 253 252 248 247 251 250 247 250 246 249 248 252 248 245 247 248 252 252 253 252 255
263 263 263 264 265 264 265 258 254 261 265 264 263 261 260 259 258 258 257 257 257 254 253 252 251 251 251 251 251 250 250 249 250 248 250 248 247 245 246 251 252 254 253
290 282 279 276 273 266 264 265 263 264 264 263 261 255 256 259 260 259 258 257 256 255 255 255 252 251 248 250 250 246 249 250 248 251 251 248 248 248 246 246 254 251 252
278 281 279 285 282 286 275 270 267 266 267 265 263 263 262 261 261 260 256 258 258 257 255 255 253 254 254 253 250 248 249 251 252 250 247 249 253 249 248 249 254 248 249
274 274 276 282 276 274 281 284 268 270 271 268 267 266 264 263 262 262 261 260 259 258 257 256 255 254 251 251 251 251 250 249 250 251 250 249 251 249 249 250 250 249 247
286 285 273 270 277 283 273 275 278 290 279 271 267 268 268 265 264 263 262 260 259 258 257 257 256 255 254 254 251 249 249 251 250 247 249 250 248 248 249 249 248 250 251
292 286 287 281 271 278 277 279 273 275 272 268 275 271 269 269 268 267 265 262 261 260 258 257 257 255 252 253 253 250 249 248 249 249 251 252 254 253 247 250 250 255 247
296 293 290 288 286 260 282 281 266 278 279 276 274 273 273 270 268 267 266 265 265 258 258 257 257 257 252 250 250 250 249 248 246 246 247 249 252 251 251 249 248 255 258
295 293 291 290 289 286 264 284 261 281 278 275 271 272 275 266 270 267 267 267 267 263 262 260 259 256 254 254 249 249 248 249 246 246 246 246 247 246 246 251 246 249 249
299 293 294 295 291 285 285 284 282 282 271 267 273 266 268 270 269 266 265 262 264 263 263 262 259 258 255 253 250 250 248 246 247 249 247 246 246 246 247 246 244 249 252
299 279 291 294 292 284 283 283 283 282 287 275 278 270 270 267 264 265 270 264 262 262 261 260 260 258 257 254 252 250 246 246 245 243 246 250 246 245 247 246 247 247 247
291 295 295 288 287 289 290 284 289 290 281 275 284 270 268 265 275 263 264 261 261 261 260 260 259 259 258 256 254 253 247 248 246 244 243 244 245 244 243 248 248 246 248
289 286 295 295 289 285 289 289 287 286 288 271 272 274 272 265 262 275 260 260 260 258 260 258 256 256 256 255 254 253 251 247 246 244 242 244 243 245 243 241 250 245 248